Flag for Namibia Weather past 2 weeks in Windhoek, Namibia

Now
59 °F

Cool.


Feels Like: 60 °F
Forecast: 63 / 84 °F
Wind: 3 mph from Northeast

Location: Windhoek

Current Time: Mar 6, 2015 at 2:30:10 AM

Latest Report: Mar 6, 2015 at 1:00 AM


Visibility: N/A

Pressure: 30.21 "Hg

Humidity: 100%

Dew point: 59 °F

Location of WindhoekLocation

Historic Weather in Windhoek — Graph

°F

Windhoek temperature yesterday

Maximum temperature yesterday: 73 °F (at 11:00 AM)
Minimum temperature yesterday: 59 °F (at 11:00 PM)
Average temperature yesterday: 66 °F

Past Weeks' High & Low Weather Summary

 TemperatureHumidityPressure
High91 °F (Feb 19, 3:00 PM)100% (Mar 6, 1:00 AM)30.27 "Hg (Mar 6, 1:00 AM)
Low57 °F (Feb 26, 7:00 AM)6% (Feb 27, 4:00 PM)29.95 "Hg (Feb 25, 5:00 PM)
Average74 °F37%30.13 "Hg
* Reported Feb 19 1:00 AM — Mar 6 1:00 AM, Windhoek, Weather by CustomWeather, © 2015

Note: Actual official high and low records may vary slightly from our data, if they occured in-between our weather recording intervals... More about our weather records

Advertising

Windhoek weather history for previous 24 hours

 ConditionsComfort  
Time TempWeatherWind HumidityBarometerVisibility
1:00 AM
Fri, Mar 6
59 °FCool.3 mph100%30.21 "HgN/A
12:00 AM61 °FCool.6 mph88%30.21 "HgN/A
11:00 PM
Thu, Mar 5
59 °FCool.9 mph94%30.24 "HgN/A
10:00 PM63 °FMild.3 mph83%30.21 "HgN/A
9:00 PM64 °FMild.7 mph83%30.18 "HgN/A
5:00 PM70 °FScattered showers. Scattered clouds.3 mph69%30.15 "HgN/A
3:00 PM68 °FSprinkles. Scattered clouds.3 mph73%30.18 "HgN/A
11:00 AM73 °FPartly sunny.7 mph50%30.24 "HgN/A
10:00 AM70 °FScattered clouds.10 mph57%30.21 "HgN/A
9:00 AM66 °FScattered showers. Partly sunny.13 mph64%30.21 "HgN/A
8:00 AM64 °FScattered showers. Broken clouds.7 mph68%30.18 "HgN/A
7:00 AM63 °FScattered showers. Partly sunny.5 mph73%30.15 "HgN/A
6:00 AM63 °FClear.6 mph73%30.15 "Hg10 mi
5:00 AM64 °FMild.5 mph64%30.15 "HgN/A
4:00 AM64 °FMild.2 mph60%30.18 "HgN/A
3:00 AM66 °FMild.2 mph60%30.18 "HgN/A
2:00 AM66 °FMild.2 mph60%30.18 "HgN/A
Weather by CustomWeather, © 2015

See weather overviewHow to use our weather pages